This demonstration page uses our WeatherBlox Daily Observations layout. Learn more.

Left ArrowRight Arrow

Hourly Observations for May 1, 2017

Temp ( °F °C ) Dew Point ( °F °C ) Humidity (%) Winds ( mph kmh ) Pressure ( in mb ) Visibility ( mi km ) Precip ( " mm )
12:06 am 00:06 Cloudy with Rain 43 6 41 5 93 93 N 7 11 29.47 998 7 11 0.00 0.00
12:36 am 00:36 Cloudy with Rain 41 5 39 4 93 93 NNW 8 13 29.45 997 6 10 0.00 0.00
12:46 am 00:46 Cloudy with Heavy Rain 41 5 39 4 93 93 NNW 6 9 29.45 997 7 11 0.00 0.00
12:56 am 00:56 Cloudy with Rain 42 5.3 40 4.4 94 94 NNW 5 7 29.45 997 6 10 0.06 1.52
1:56 am 01:56 Cloudy with Rain 41 5.2 40 4.2 93 93 NW 9 15 29.44 997 8 13 0.06 1.52
2:06 am 02:06 Cloudy with Rain 41 5 39 4 93 93 NW 9 15 29.44 997 8 13 0.00 0.00
2:09 am 02:09 Mostly Cloudy with Heavy Rain 41 5 39 4 93 93 NW 9 15 29.43 997 9 14 0.00 0.00
2:49 am 02:49 Cloudy with Light Rain 41 5 39 4 93 93 WNW 12 19 29.43 997 10 16 0.00 0.00
2:56 am 02:56 Cloudy with Light Rain 40 4.6 38 3.4 92 92 NW 13 20 29.43 997 10 16 0.03 0.76
3:06 am 03:06 Cloudy with Light Rain 39 4 37 3 93 93 WNW 12 19 29.44 997 9 14 0.00 0.00
3:46 am 03:46 Cloudy with Light Rain 37 3 36 2 93 93 NW 12 19 29.44 997 7 11 0.00 0.00
3:56 am 03:56 Cloudy with Light Rain 38 3.2 36 2 92 92 NW 12 19 29.44 997 7 11 0.01 0.25
4:06 am 04:06 Cloudy with Light Rain 37 3 36 2 93 93 NW 10 17 29.45 997 8 13 0.00 0.00
4:20 am 04:20 Cloudy with Light Rain 37 3 36 2 93 93 NW 10 17 29.45 997 10 16 0.00 0.00
4:56 am 04:56 Cloudy with Light Rain 38 3.1 35 1.8 91 91 WNW 13 20 29.46 998 10 16 0.00 0.03
5:06 am 05:06 Cloudy with Light Rain 37 3 36 2 93 93 WNW 9 15 29.46 998 10 16 0.00 0.00
5:56 am 05:56 Mostly Cloudy with Light Rain 37 2.7 35 1.4 91 91 WNW 14 22 29.48 998 10 16 0.03 0.76
6:20 am 06:20 Cloudy with Light Rain 37 3 34 1 87 87 WNW 12 19 29.49 999 10 16 0.00 0.00
6:50 am 06:50 Cloudy with Light Rain 37 3 34 1 87 87 NW 13 20 29.50 999 10 16 0.00 0.00
6:56 am 06:56 Cloudy with Light Rain 37 2.6 34 1.3 91 91 NW 13 20 29.50 999 10 16 0.01 0.25
7:00 am 07:00 Cloudy 37 3 34 1 87 87 NW 13 20 29.50 999 10 16 0.00 0.00
7:02 am 07:02 Cloudy with Light Rain 37 3 34 1 87 87 NW 10 17 29.50 999 10 16 0.00 0.00
7:13 am 07:13 Cloudy 37 3 34 1 87 87 NNW 14 22 29.51 999 10 16 0.00 0.00
7:56 am 07:56 Cloudy 37 2.8 34 1.2 89 89 NW 14 22 29.53 1000 10 16 0.00 0.03
8:16 am 08:16 Cloudy 37 3 34 1 87 87 NW 17 28 29.54 1000 10 16 0.00 0.00
8:46 am 08:46 Cloudy 37 3 34 1 87 87 NW 20 31 29.54 1000 10 16 0.00 0.00
8:56 am 08:56 Cloudy 37 3 34 0.9 86 86 NW 18 30 29.55 1001 10 16 0.00 0.00
9:06 am 09:06 Cloudy 37 3 34 1 87 87 NW 20 31 29.55 1001 10 16 0.00 0.00
9:56 am 09:56 Cloudy 38 3.6 33 0.5 80 80 NW 17 28 29.57 1001 10 16 0.00 0.00
10:01 am 10:01 Cloudy with Light Rain 39 4 34 1 81 81 NW 18 30 29.57 1001 10 16 0.00 0.00
10:09 am 10:09 Cloudy with Light Rain 39 4 34 1 81 81 NW 20 31 29.57 1001 10 16 0.00 0.00
10:22 am 10:22 Cloudy 39 4 34 1 81 81 NW 22 35 29.57 1001 10 16 0.00 0.00
10:31 am 10:31 Cloudy with Light Rain 39 4 34 1 81 81 NW 20 31 29.58 1002 10 16 0.00 0.00
10:50 am 10:50 Cloudy 39 4 34 1 81 81 NW 20 31 29.59 1002 10 16 0.00 0.00
10:56 am 10:56 Cloudy 40 4.4 34 0.9 78 78 NW 16 26 29.59 1002 10 16 0.00 0.03
11:06 am 11:06 Cloudy 41 5 34 1 76 76 NW 16 26 29.59 1002 10 16 0.00 0.00
11:44 am 11:44 Cloudy with Light Rain 43 6 34 1 71 71 WNW 21 33 29.60 1003 10 16 0.00 0.00
11:56 am 11:56 Cloudy with Light Rain 41 5.1 35 1.4 77 77 WNW 20 31 29.62 1003 10 16 0.00 0.03
11:57 am 11:57 Cloudy 41 5 34 1 76 76 NW 21 33 29.62 1003 10 16 0.00 0.00
12:47 pm 12:47 Cloudy 43 6 36 2 76 76 WNW 20 31 29.64 1004 10 16 0.00 0.00
12:56 pm 12:56 Cloudy 44 6.6 35 1.9 72 72 WNW 21 33 29.65 1004 10 16 0.00 0.03
1:25 pm 13:25 Cloudy with Light Rain 45 7 36 2 71 71 NW 24 39 29.66 1004 10 16 0.00 0.00
1:52 pm 13:52 Cloudy 45 7 36 2 71 71 WNW 28 44 29.68 1005 10 16 0.00 0.00
1:56 pm 13:56 Cloudy 45 7.2 36 2.1 70 70 NW 21 33 29.68 1005 10 16 0.00 0.03
2:13 pm 14:13 Cloudy with Light Rain 46 8 36 2 66 66 WNW 25 41 29.68 1005 10 16 0.00 0.00
2:28 pm 14:28 Cloudy 45 7 37 3 76 76 NW 22 35 29.68 1005 10 16 0.00 0.00
2:56 pm 14:56 Cloudy 47 8.1 37 2.5 68 68 NW 16 26 29.71 1006 10 16 0.00 0.03
3:56 pm 15:56 Mostly Cloudy 51 10.3 38 3.3 62 62 NW 25 41 29.71 1006 10 16 0.00 0.00
4:56 pm 16:56 Partly Cloudy 52 11.3 40 4.3 62 62 NW 21 33 29.74 1007 10 16 0.00 0.00
5:56 pm 17:56 Mostly Sunny 55 12.8 37 2.9 51 51 NW 18 30 29.73 1007 10 16 0.00 0.00
6:56 pm 18:56 Sunny 55 12.8 36 2.1 48 48 NW 14 22 29.74 1007 10 16 0.00 0.00
7:56 pm 19:56 Sunny 53 11.8 37 2.5 53 53 NW 9 15 29.76 1008 10 16 0.00 0.00
8:56 pm 20:56 Mostly Cloudy 45 7.1 38 3.3 77 77 Calm 29.78 1008 10 16 0.00 0.00
9:56 pm 21:56 Mostly Cloudy 43 6.2 38 3.5 83 83 Calm 29.78 1008 10 16 0.00 0.00
10:56 pm 22:56 Mostly Cloudy 41 5.2 38 3.4 88 88 SW 3 6 29.79 1009 10 16 0.00 0.00
11:56 pm 23:56 Mostly Cloudy 45 7.2 39 3.8 79 79 SW 3 6 29.79 1009 10 16 0.00 0.00

Powered by AerisWeather